CZ-2C DEB, 40289

Orbit data source: Space-Track

CZ-2C DEB, 40289 is space debris in SSO originally from a launch on Mon, 27 Oct 2014 UTC launched from the Jiuquan Satellite Launch Center, China (JSC). Debris objects in space refer to the collection of defunct objects orbiting the Earth. Examples of debris include non-operational satellites, rocket bodies, and fragments generated from explosions, collisions, or faulty payload assembly.

Loading next visibility...
Identifier
40289, 2014-066D
Orbit
SSO
Country
Flag of CNCN / PRC
Related business
Manufacturer
CALT
Mission
Spacecraft
Bus & Motor
Unknown
Mass
1 kg wet, 1 kg dry
Launch date (UTC)
2014-10-27 (11 years ago)
Launch vehicle
Unknown
Launch site
Jiuquan Satellite Launch Center, China (JSC)
Object type
Payload
Rocket body
Debris
Shape & HBR
Cone, 0.1 m
Radar Cross Section
0.025 m², Small (<0.1 m²)

Expand to show TLE details & history
Last TLE update: 13 hours ago

TLE from 13 hours ago
0 CZ-2C DEB
1 40289U 14066D   26061.69474166  .00010091  00000-0  13463-2 0  9998
2 40289  98.4921 334.0180 0069078 126.4045 234.3562 14.78127201602533
Epoch: 2026-03-02T16:40Z
TLE epoch observation values (Epoch: 2026-03-02T16:40:25.679Z)
Latitude
0.00001°
Longitude
-76.57347°
Altitude
666.701 km
Speed
7.508 km/s
True Right ascension
22h 16m 04s
True Declination
0° 00' 00"
Sunlit
Object was in daylight at epoch
Visualization orbit readout
Latitude
Unknown
Longitude
Unknown
Altitude
Unknown
Speed
Unknown
Apparent Right ascension
Unknown
Apparent Declination
Unknown
Sunlit
N/A
Visualization observer readout
Local Sidereal Time
09:28:28
Azimuth
Unknown
Elevation
Unknown
Doppler factor
Unknown
Orbital elements
Apogee altitude
680.739 km
Perigee altitude
583.886 km
Semi-major axis
7,010.449 km
Eccentricity
0.00691
Inclination
98.4921°
RAAN
334.018°
Arg. of periapsis
126.4045°
True anomaly
233.71616°
Mean anomaly
234.3562°
Eccentric anomaly
234.03586°
Mean motion
3.69764 °/min
Orbital period
97.36 mins
BSTAR
0.0013463
Loading maneuver chart data...
Computing Atmospheric mass density...
Loading historical data...
Loading historical data...
Loading historical data...
Loading historical data...
Loading historical data...
Loading historical data...
Loading historical data...
Other satellites on launch #66 in the year 2014 (2014-10-27 UTC)

Documentation

Showing up to 5 results
|